768  
NZUS99 KDVN 220810  
HRRRRR  
HOURLY WEATHER ROUNDUP  
NATIONAL WEATHER SERVICE QUAD CITIES IA IL  
300 AM CDT FRI SEP 22 2017  
 
NOTE: "FAIR" INDICATES FEW OR NO CLOUDS BELOW 12,000 FEET WITH  
NO SIGNIFICANT WEATHER AND/OR OBSTRUCTIONS TO VISIBILITY.  
------------------------------------------------------------------  
 
CITY SKY/WX TMP DP RH WIND PRES REMARKS  
BURLINGTON CLEAR 76 69 79 S9 29.99R  
CEDAR RAPIDS CLEAR 75 69 81 S9 29.96R  
DAVENPORT CLEAR 74 68 81 S7 30.01S  
DUBUQUE CLEAR 72 68 87 S13 29.99S  
IOWA CITY PTCLDY 72 68 87 SE5 29.97S  
MOLINE CLEAR 76 68 76 S7 29.99R  
------------------------------------------------------------------  
THE STATIONS BELOW ARE NOT NWS STATIONS AND ARE NOT SUBJECT TO NWS  
QUALITY CONTROL. SOME STATIONS DO NOT REPORT WEATHER SUCH AS FOG.  
* - STATIONS THAT REPORT TMP AND DP IN WHOLE DEGREES CELSIUS, WHICH  
ARE THEN CONVERTED TO FAHRENHEIT.  
------------------------------------------------------------------  
 
CITY SKY/WX TMP DP RH WIND PRES REMARKS  
CLINTON CLEAR N/A N/A N/A S8 30.00S  
FAIRFIELD * PTCLDY 75 68 78 S9 29.96R  
FORT MADISON * CLEAR 75 70 83 S7 30.00R  
FREEPORT MOCLDY 67 66 97 S5 30.03S  
INDEPENDENCE * CLEAR 73 68 84 S10 29.95S  
KEOKUK * CLEAR 79 68 69 S8 29.98S HX 81  
MACOMB CLEAR 70 68 94 S6 30.03S  
MONTICELLO * CLEAR 72 68 88 SE9 29.97S  
MT PLEASANT CLEAR 72 67 85 SE8 29.98S  
MUSCATINE * CLEAR 68 66 94 CALM 29.98S  
SAVANNA CLEAR 70 67 89 S3 30.00S  
STERLING/R.F. PTCLDY 73 69 87 CALM 30.01F  
VINTON * CLEAR 76 70 81 S8 29.94S  
WASHINGTON * PTCLDY 73 70 88 S6 29.98R  
------------------------------------------------------------------  
 
 
CLICK HERE TO GO TO PREVIOUS BULLETINS.

The Nexlab IL Page
The Nexlab IA Page
The Nexlab MO Page Main Text Page